Theta_e
268 272 272 273 272 272 267 268 263 270 268 272 274 273 273 277 279 279 281 280 280 280 280 280 281 281 280 281 281 281 281 280 279 280 280 276 272 271 271 273 275 276 278 280
262 271 271 269 271 271 272 271 268 270 269 274 275 276 275 275 275 279 278 280 280 281 281 281 280 279 277 276 276 279 276 275 275 276 276 275 273 272 271 271 271 271 275 276
259 268 265 261 268 270 268 267 265 261 268 273 270 273 270 272 272 272 272 275 278 277 276 280 275 277 273 273 275 273 272 273 273 273 273 273 273 271 272 272 270 270 271 275
257 259 255 270 272 273 271 272 270 269 269 272 266 274 275 275 274 272 272 274 275 276 276 276 274 272 271 271 271 271 272 271 272 272 272 272 270 271 269 271 272 274 273 272
258 250 265 269 269 269 267 267 271 270 271 272 273 273 273 275 273 270 268 269 269 271 272 270 271 271 270 270 269 270 272 272 272 272 272 271 270 272 271 272 274 273 276 275
253 254 253 267 271 272 272 263 271 272 271 270 272 267 266 271 273 274 273 269 267 266 265 268 269 270 271 270 269 270 271 272 271 272 271 272 271 270 269 273 276 278 279 275
254 253 260 271 272 273 261 266 272 271 270 270 268 267 269 270 270 272 275 275 273 270 267 264 264 268 268 268 267 270 272 271 270 270 271 273 274 272 273 273 276 273 276 276
254 253 257 273 271 267 269 272 271 270 270 268 269 269 269 269 269 269 267 268 271 270 268 267 266 270 268 269 268 269 270 270 269 269 271 273 274 276 275 276 276 274 273 275
264 265 271 271 266 267 266 268 270 269 268 267 266 266 267 268 269 270 270 269 270 268 268 268 269 270 268 268 269 269 268 266 267 268 270 272 273 275 276 277 277 277 276 276
266 268 268 268 268 270 270 268 269 267 266 265 264 265 265 265 266 266 267 266 267 265 265 265 267 267 267 267 268 266 264 265 266 267 268 269 272 274 275 276 276 277 276 276
266 271 269 268 268 268 269 268 266 266 265 264 263 263 263 262 263 263 263 264 263 262 262 262 264 264 264 265 264 263 263 264 265 266 266 267 270 272 274 277 278 276 276 277
266 270 268 268 267 267 265 264 264 263 261 262 262 261 261 260 261 261 260 260 260 260 260 260 261 261 261 262 261 260 260 262 263 263 264 265 266 267 272 275 278 281 283 282
268 268 267 267 264 264 263 263 263 261 261 259 260 260 259 258 258 258 257 257 257 257 258 258 258 258 259 259 259 258 258 259 261 262 262 263 264 265 265 269 275 278 281 283
267 267 265 265 263 263 263 262 261 259 259 259 258 255 255 254 255 254 255 256 256 256 256 256 256 256 258 257 257 256 257 258 259 260 261 261 262 262 263 264 264 267 275 279
264 264 263 262 261 260 259 258 255 255 256 255 255 253 252 251 252 254 255 255 255 254 254 255 255 256 258 257 256 256 257 259 259 260 261 261 262 262 263 264 265 266 268 272
259 254 253 255 255 254 253 252 252 254 252 251 251 252 251 251 251 252 253 253 250 256 256 257 259 260 261 260 259 259 258 258 259 259 260 260 260 259 260 261 263 264 265 267
255 253 249 250 251 250 251 250 251 251 251 250 252 251 249 249 249 250 252 252 252 254 257 259 260 261 260 260 260 260 260 260 260 260 259 260 260 259 260 259 260 262 264 266
254 253 252 253 252 250 249 249 250 250 248 250 248 247 247 246 250 252 253 254 255 254 256 255 257 260 260 260 260 261 261 260 260 260 260 259 260 260 260 260 260 261 262 264
251 253 249 251 250 249 248 249 249 250 247 247 246 249 249 250 249 249 250 249 250 251 256 257 261 259 259 262 264 262 261 261 261 261 261 260 260 260 260 260 260 260 261 262
249 248 248 248 245 248 250 248 246 245 247 245 244 244 249 250 247 247 246 248 251 255 252 254 255 257 259 262 264 262 261 260 260 261 262 262 261 260 260 261 261 260 260 261
251 249 250 249 248 246 247 246 244 246 248 242 243 248 248 250 248 245 246 250 253 248 250 254 253 256 259 262 261 260 261 260 260 260 260 260 261 262 262 261 261 261 260 261
248 249 250 248 246 247 246 245 243 243 244 245 243 244 245 248 248 247 249 252 254 251 251 254 254 255 258 259 260 260 260 261 261 260 260 260 260 260 260 261 262 262 262 261
247 247 248 246 246 248 242 241 244 245 246 245 245 246 247 251 250 248 253 251 248 250 256 255 255 258 261 253 256 258 260 261 261 261 260 260 260 260 260 260 260 261 262 263
246 246 246 244 241 242 246 247 242 243 244 245 246 247 247 249 252 251 254 255 253 253 254 255 256 262 261 249 252 254 257 260 261 261 261 261 261 261 261 260 260 260 260 261
246 246 244 243 243 248 244 245 243 241 242 246 247 248 248 251 252 253 249 254 256 256 255 256 261 261 255 252 250 251 252 256 259 261 261 261 261 261 261 261 260 260 260 261
245 248 247 247 248 247 247 243 247 246 242 248 250 248 248 249 252 253 255 255 254 255 255 256 256 254 253 253 252 251 252 254 257 258 260 260 261 261 261 261 261 261 261 262
245 246 244 246 244 246 246 246 242 248 245 243 248 251 250 250 250 252 254 254 255 255 255 255 255 255 254 253 253 253 253 253 255 257 258 259 260 260 261 261 261 261 262 262
Wind_Speed
6 5 2 5 8 8 8 11 6 20 13 18 16 10 10 6 7 8 8 2 4 2 4 4 5 5 5 6 8 8 6 4 5 6 4 3 5 6 6 6 5 5 6 6
5 5 1 4 9 12 12 10 9 13 14 7 8 7 6 9 6 6 4 4 3 3 4 4 3 2 2 3 5 6 6 6 6 5 4 3 3 4 6 6 5 4 5 5
7 4 3 8 7 5 5 5 7 2 8 6 10 12 9 9 6 5 5 3 3 2 1 2 3 4 4 5 5 5 5 6 7 7 6 6 5 3 3 5 4 4 4 3
5 5 3 6 4 6 8 4 2 1 2 5 5 3 12 14 13 9 8 8 8 7 6 6 5 6 5 4 3 5 5 6 6 6 7 6 5 5 4 3 3 4 4 4
4 4 9 7 1 3 4 4 2 1 5 5 9 2 2 12 7 2 4 4 3 3 3 4 6 6 6 7 6 4 5 6 7 7 7 6 6 7 5 3 3 3 3 5
3 5 8 5 4 3 3 5 2 3 4 6 9 8 4 10 10 11 9 5 6 5 3 4 6 6 7 7 6 6 7 6 5 6 7 8 7 6 4 3 4 3 5 4
3 3 10 7 3 0 6 5 3 3 4 6 3 2 6 7 8 6 6 9 6 6 5 5 5 5 6 5 5 6 7 6 5 5 8 8 8 3 4 5 4 4 5 4
3 3 12 6 2 7 3 3 3 2 3 5 7 9 9 9 10 7 6 5 5 6 5 6 6 6 6 6 6 6 9 10 9 8 7 7 10 9 7 5 5 5 3 6
11 10 2 0 5 2 4 3 1 2 4 5 8 10 11 11 11 11 10 11 8 9 11 9 7 9 11 8 10 10 10 12 11 10 8 7 9 10 7 6 5 6 5 5
3 3 5 4 3 4 4 3 4 5 3 5 7 11 14 13 13 13 12 12 12 12 13 13 11 11 10 11 10 9 12 12 11 11 10 9 7 7 7 6 6 7 6 7
4 3 8 2 4 4 5 6 3 3 2 5 8 11 12 12 13 12 13 12 12 13 14 15 13 12 10 10 9 11 12 11 11 9 10 10 8 7 7 8 8 6 7 7
7 6 5 5 6 6 5 2 2 4 4 5 7 9 10 11 10 11 11 12 12 12 12 14 14 14 12 10 9 10 11 10 8 9 8 8 9 10 14 19 22 22 22 16
7 5 4 6 7 4 3 2 3 3 5 6 6 5 8 10 8 11 11 11 11 12 13 13 13 13 12 11 9 9 10 10 8 9 8 8 8 9 11 10 19 21 22 19
8 9 3 4 5 4 3 1 2 3 3 3 4 3 5 6 9 9 10 11 11 11 12 11 11 13 12 9 9 10 10 12 9 8 8 8 8 8 8 9 10 8 12 15
6 4 5 6 5 4 3 1 0 3 3 3 3 5 5 7 8 10 10 10 10 11 12 10 10 13 11 9 9 11 9 8 8 8 8 9 8 8 9 9 9 9 7 11
6 5 4 4 6 3 3 1 2 4 4 3 5 6 7 7 8 10 9 8 5 11 13 10 11 12 9 8 9 9 9 13 12 8 8 8 7 8 8 9 10 9 8 8
7 2 1 3 6 5 7 5 5 5 4 4 8 7 6 7 7 7 7 6 6 8 10 10 12 12 11 10 9 8 7 8 11 8 9 8 8 8 8 8 9 9 9 6
5 3 5 5 7 6 5 6 6 7 6 6 4 4 5 4 7 9 9 9 9 8 7 6 8 11 11 12 10 8 8 8 8 8 8 8 9 8 8 9 10 10 8 8
5 7 6 6 7 6 5 6 6 7 5 5 3 7 6 7 6 7 7 7 7 7 7 9 13 12 11 12 12 7 8 9 8 8 9 11 10 9 9 9 10 10 9 8
4 3 5 4 4 6 6 6 5 5 6 3 4 4 8 8 6 6 4 7 8 8 6 9 10 9 9 11 12 7 7 8 9 9 8 8 8 10 9 12 11 9 9 9
6 5 6 7 6 5 6 5 4 6 6 4 4 7 8 9 6 4 5 5 7 5 6 8 5 7 8 10 9 6 7 8 8 8 8 8 8 8 9 10 10 9 9 9
4 5 7 6 5 5 6 6 4 4 6 6 6 6 7 10 6 6 8 10 6 5 4 5 5 8 9 11 7 7 7 8 7 7 8 8 8 7 7 8 8 8 9 9
4 4 4 4 6 6 3 3 6 6 8 7 7 7 7 7 4 2 8 5 4 5 6 7 9 13 12 3 6 7 8 8 8 8 7 8 8 8 7 7 7 7 7 7
3 4 4 3 0 2 6 5 5 6 6 6 8 8 6 5 6 7 8 10 9 7 8 8 9 14 10 3 5 6 6 7 8 8 8 9 7 7 7 7 7 6 6 8
5 3 3 2 3 6 5 5 5 4 5 7 7 7 8 6 7 5 4 6 10 9 8 10 12 12 5 5 5 5 5 6 7 7 8 8 8 8 8 7 7 6 6 6
3 4 4 6 5 4 4 2 5 3 2 6 6 4 4 4 5 7 7 8 7 9 8 8 7 5 5 5 5 6 6 6 7 7 7 7 8 8 8 8 7 7 7 7
4 4 3 4 3 4 4 4 3 6 4 4 7 7 5 5 5 7 8 8 7 7 7 7 7 7 6 6 6 5 5 5 7 7 7 6 7 7 8 8 8 8 7 7
Wind_Direction
264 262 190 219 252 250 204 235 202 276 285 289 294 292 282 268 307 319 315 327 114 73 58 44 41 26 7 1 353 341 344 358 316 302 286 308 322 327 334 345 344 347 343 354
300 304 101 259 248 247 252 257 259 265 272 267 285 293 290 287 293 307 320 346 23 31 26 31 29 28 9 348 336 338 341 340 330 318 293 286 290 310 324 322 323 341 345 344
270 331 325 317 232 197 215 205 177 230 250 330 330 325 315 319 293 288 307 295 324 290 268 12 50 21 6 339 328 358 352 347 340 329 317 292 289 286 286 294 313 312 320 333
249 358 337 245 201 200 227 234 194 285 351 28 264 321 54 28 11 348 351 356 348 348 355 18 3 360 324 322 8 11 8 356 345 338 324 311 297 280 278 265 267 285 294 307
149 188 299 276 97 118 138 250 351 351 4 343 324 343 15 25 25 6 312 328 318 332 11 350 1 341 348 350 352 15 13 356 343 339 330 317 308 291 269 266 261 270 279 300
64 139 229 239 340 109 124 263 36 64 24 353 339 320 274 360 358 353 347 332 336 337 348 20 348 343 353 347 354 1 347 339 332 332 328 319 298 281 258 244 249 252 280 264
200 207 284 239 231 335 97 261 74 52 44 3 340 221 303 342 332 338 336 343 350 359 3 320 326 335 336 330 353 323 328 320 321 315 316 303 300 276 261 248 254 271 277 274
92 113 277 178 35 158 177 102 70 54 24 333 315 311 314 318 317 316 307 330 340 354 340 321 330 338 330 331 317 324 329 324 321 315 311 306 302 297 282 265 258 250 256 285
181 209 166 8 149 167 135 142 5 329 6 345 317 312 312 309 315 316 330 332 341 340 328 332 335 332 320 318 322 319 322 317 313 309 303 297 301 294 285 254 242 257 249 256
92 254 155 141 96 138 148 164 91 71 358 324 311 316 316 319 320 323 322 321 325 324 316 312 318 315 308 311 315 316 308 305 306 305 307 300 290 285 280 263 244 244 243 245
263 115 87 77 118 133 107 87 40 345 18 332 320 317 322 320 318 321 320 320 318 314 308 305 310 307 309 308 309 302 301 298 295 293 294 297 290 290 285 277 256 245 243 240
217 172 147 127 133 123 124 73 333 336 327 333 328 321 326 316 315 313 311 312 307 302 301 302 306 304 307 306 301 294 295 296 294 296 295 294 296 296 282 283 283 279 265 250
173 128 108 112 114 94 111 48 4 344 322 323 327 328 316 307 307 305 298 295 293 295 296 296 298 300 300 298 295 291 289 292 290 288 289 289 290 294 302 304 298 290 279 277
115 118 110 173 166 102 104 54 42 316 272 282 298 296 283 284 295 288 288 290 294 294 292 291 290 287 288 282 276 277 276 278 279 278 276 277 276 277 281 287 293 288 288 288
120 69 95 111 121 123 124 146 67 285 269 281 253 260 270 284 287 290 294 290 288 287 283 282 280 281 282 270 271 274 276 278 277 277 276 275 279 282 279 279 278 281 284 285
112 83 95 150 166 172 178 254 212 254 239 248 260 272 264 261 276 284 287 286 302 309 303 299 296 297 302 288 275 273 267 263 265 270 272 268 263 265 272 274 273 270 270 274
110 288 156 240 197 196 202 204 214 237 248 250 263 270 287 289 289 283 288 279 271 279 289 297 306 315 305 293 285 286 281 276 265 263 264 266 266 261 261 260 266 271 273 260
129 116 147 152 169 192 230 227 225 242 233 239 255 272 284 279 278 292 298 310 311 297 284 275 304 306 313 303 296 290 281 276 273 264 260 258 256 255 253 258 263 265 268 269
151 168 186 190 198 194 212 231 228 234 247 245 266 269 252 264 262 271 292 300 295 299 295 324 317 323 303 312 330 321 309 303 292 271 260 258 258 254 252 250 254 256 259 260
160 179 182 209 196 193 221 233 236 254 253 246 260 281 286 273 257 278 275 267 252 247 293 300 307 304 312 315 328 316 310 311 309 305 304 284 254 254 253 250 248 248 249 250
202 196 203 208 229 236 229 232 218 259 263 233 231 261 263 281 272 261 296 295 269 246 272 291 287 299 309 322 322 312 315 316 314 311 307 303 302 289 264 252 248 245 245 244
200 202 216 212 213 254 249 245 225 254 265 267 250 257 271 277 271 273 226 233 277 289 294 294 290 290 298 324 310 311 311 314 314 315 311 306 301 296 288 290 277 253 249 245
204 211 212 210 225 243 284 261 251 238 255 246 251 255 243 258 245 262 293 254 240 272 298 294 286 298 306 324 310 309 310 314 317 316 312 310 308 302 295 287 279 274 277 275
224 224 229 236 136 348 289 274 247 249 234 255 250 247 244 276 279 216 243 270 274 277 285 278 286 298 309 292 291 297 303 310 314 316 314 315 311 308 306 296 289 277 266 265
220 236 214 215 246 254 240 260 286 272 272 271 265 259 241 226 223 271 246 266 278 286 284 280 283 290 288 280 278 280 282 294 303 312 315 317 319 319 316 313 304 295 285 270
209 227 229 221 228 230 240 198 252 263 270 286 281 254 264 254 254 260 269 269 269 275 272 280 278 270 265 266 270 273 280 289 298 301 307 312 315 319 322 324 319 312 303 292
265 246 289 292 249 235 224 223 213 263 227 229 269 280 263 271 267 268 269 273 270 271 271 272 272 272 266 269 270 261 266 275 281 293 297 299 309 314 320 322 321 313 309 306